Zurück zum Katalog

STARLINK-31943

AktivKommunikationVLEO
NORAD 59878·PAYLOAD·🇺🇸 United States

Gestartet May 24, 2024 von Cape Canaveral Space Force Station

Loading…

Nächste Überflüge (nächste 24 Stunden)

TLE

AktuellSource: CelesTrak SupGP

Epoche: Sep 15, 2026, 03:42 UTC

1 59878C 24098W   26258.15465278  .00082683  00000+0  52921-3 0  2587
2 59878  42.9850 261.6953 0025065 101.6003 240.4956 15.74836073    13

Verfolge STARLINK-31943 in Echtzeit mit AllMySat

Download on the App Store